Weather History for Charleston, SC

Change the Weather History Date:

Friday, November 16, 2012

  Actual Average Record
Temperature  
Mean Temperature 51 °F 59 °F  
Max Temperature 55 °F 70 °F 85 °F (1958)
Min Temperature 46 °F 47 °F 22 °F (1940)
Degree Days  
Heating Degree Days 14 7  
Month to date heating degree days 155 94  
Since 1 July heating degree days 213 163  
Cooling Degree Days 0 1  
Month to date cooling degree days 6 21  
Year to date cooling degree days 2460 2285  
Moisture  
Dew Point 45 °F    
Average Humidity 82    
Maximum Humidity 93    
Minimum Humidity 71    
Precipitation  
Precipitation T in 0.08 in 1.32 in (1994)
Month to date precipitation 1.39 1.31  
Year to date precipitation 39.60 46.80  
Snow  
Snow 0.00 in 0.00 in - ()
Month to date snowfall 0.0  
Since 1 July snowfall 0.0 0.0  
Since 1 September snowfall 0.0 0.0  
Snow Depth 0.00 in    
Sea Level Pressure  
Sea Level Pressure 30.26 in    
Wind  
Wind Speed 8 mph (NNE)    
Max Wind Speed 14 mph    
Max Gust Speed 18 mph    
Visibility 9 miles    
Events Rain    
T = Trace of Precipitation, MM = Missing Value Source: NWS Daily Summary

Daily Weather History Graph

Daily Weather History Graph

Search for Another Location

Airport:

Trip Planner

Search our weather history database for the weather conditions in past years. The results will help you decide how hot, cold, wet, or windy it might be!

Date:

Astronomy

Nov. 16, 2012 Rise Set
Actual Time 6:51 AM EST 5:17 PM EST
Civil Twilight 6:25 AM EST 5:44 PM EST
Nautical Twilight 5:55 AM EST 6:14 PM EST
Astronomical Twilight 5:26 AM EST 6:43 PM EST
Moon 9:42 AM EST (11/16) 8:17 PM EST (11/16)
Length of Visible Light 11h 18m
Length of Day
10h 25m
Waxing Crescent, 11% of the Moon is Illuminated
Nov 16
Waxing Crescent
Nov 20
First Quarter
Nov 28
Full
Dec 6
Last Quarter
Dec 13
New

Hourly Weather History & Observations

Time (EST) Temp. Windchill Dew Point Humidity Pressure Visibility Wind Dir Wind Speed Gust Speed Precip Events Conditions
12:03 AM 46.4 °F 41.1 °F 44.6 °F 93% 30.22 in 4.0 mi North 11.5 mph - 0.00 in   Light Drizzle
12:56 AM 46.0 °F 41.0 °F 44.1 °F 93% 30.22 in 5.0 mi North 10.4 mph - 0.00 in   Light Drizzle
1:56 AM 46.0 °F 40.6 °F 44.1 °F 93% 30.22 in 5.0 mi North 11.5 mph - 0.00 in   Light Drizzle
2:56 AM 46.0 °F 41.4 °F 44.1 °F 93% 30.22 in 7.0 mi North 9.2 mph - 0.00 in   Overcast
3:56 AM 46.9 °F - 44.1 °F 90% 30.21 in 7.0 mi North 8.1 mph - N/A   Overcast
4:56 AM 46.9 °F - 45.0 °F 93% 30.22 in 7.0 mi North 5.8 mph - N/A   Overcast
5:56 AM 46.0 °F 41.0 °F 44.1 °F 93% 30.22 in 7.0 mi NNE 10.4 mph - N/A   Overcast
6:56 AM 46.0 °F 41.4 °F 44.1 °F 93% 30.25 in 8.0 mi North 9.2 mph - N/A   Overcast
7:56 AM 46.9 °F - 45.0 °F 93% 30.25 in 6.0 mi NNE 8.1 mph - N/A   Overcast
8:56 AM 46.9 °F - 45.0 °F 93% 30.27 in 8.0 mi NNE 8.1 mph - N/A   Overcast
9:22 AM 48.2 °F - 44.6 °F 87% 30.27 in 8.0 mi NNE 10.4 mph - N/A   Overcast
9:56 AM 48.9 °F - 45.0 °F 86% 30.29 in 10.0 mi NNE 10.4 mph - N/A   Overcast
10:25 AM 50.0 °F - 44.6 °F 82% 30.29 in 10.0 mi NE 9.2 mph - N/A   Overcast
10:56 AM 50.0 °F - 45.0 °F 83% 30.28 in 10.0 mi NE 12.7 mph - N/A   Overcast
11:56 AM 51.1 °F - 46.0 °F 83% 30.27 in 10.0 mi NNE 11.5 mph - N/A   Overcast
12:25 PM 51.8 °F - 44.6 °F 76% 30.27 in 10.0 mi North 8.1 mph - N/A   Overcast
12:56 PM 52.0 °F - 45.0 °F 77% 30.27 in 10.0 mi North 5.8 mph - N/A   Overcast
1:56 PM 53.1 °F - 45.0 °F 74% 30.25 in 10.0 mi NNE 5.8 mph - N/A   Overcast
2:56 PM 54.0 °F - 46.0 °F 75% 30.25 in 10.0 mi North 6.9 mph - N/A   Overcast
3:56 PM 53.1 °F - 46.0 °F 77% 30.25 in 10.0 mi NNE 4.6 mph - N/A   Overcast
4:50 PM 53.6 °F - 46.4 °F 77% 30.25 in 10.0 mi Calm Calm - N/A   Overcast
4:56 PM 54.0 °F - 46.9 °F 77% 30.25 in 10.0 mi Calm Calm - N/A   Overcast
5:56 PM 53.1 °F - 46.9 °F 80% 30.27 in 10.0 mi Calm Calm - N/A   Overcast
6:56 PM 53.1 °F - 48.0 °F 83% 30.28 in 10.0 mi NNW 3.5 mph - N/A   Overcast
7:56 PM 53.1 °F - 48.9 °F 86% 30.28 in 10.0 mi North 4.6 mph - N/A   Overcast
8:56 PM 53.1 °F - 46.9 °F 80% 30.29 in 10.0 mi NNE 6.9 mph - N/A   Mostly Cloudy
9:56 PM 51.1 °F - 45.0 °F 80% 30.31 in 10.0 mi NNE 11.5 mph - N/A   Mostly Cloudy
10:56 PM 52.0 °F - 44.1 °F 74% 30.31 in 10.0 mi NE 8.1 mph - N/A   Mostly Cloudy
11:56 PM 50.0 °F - 42.1 °F 74% 30.30 in 10.0 mi NNE 9.2 mph - N/A   Partly Cloudy